Weather History for KHBG - February, 2013

Change the Weather History Date:

Monday, February 18, 2013

  Actual Average Record
Temperature  
Mean Temperature 51 °F 53 °F  
Max Temperature 67 °F 64 °F 82 °F (1956)
Min Temperature 35 °F 41 °F 19 °F (1958)
Degree Days  
Heating Degree Days 14 13  
Month to date heating degree days 207 266  
Since 1 July heating degree days 1286 1565  
Cooling Degree Days 0 0  
Month to date cooling degree days 0 0  
Year to date cooling degree days 28 6  
Moisture  
Dew Point 43 °F    
Average Humidity 68    
Maximum Humidity 92    
Minimum Humidity 44    
Precipitation  
Precipitation 0.05 in 0.22 in 7.02 in (1961)
Month to date precipitation 7.48 3.42  
Year to date precipitation 15.41 9.16  
Sea Level Pressure  
Sea Level Pressure 30.14 in    
Wind  
Wind Speed 10 mph (SSE)    
Max Wind Speed 25 mph    
Max Gust Speed 33 mph    
Visibility 10 miles    
Events Rain    
T = Trace of Precipitation, MM = Missing Value Source: NWS Daily Summary

Daily Weather History Graph

Daily Weather History Graph

Search for Another Location

Airport or City:

Trip Planner

Search our weather history database for the weather conditions in past years. The results will help you decide how hot, cold, wet, or windy it might be!

Date:

Astronomy

Feb. 18, 2013 Rise Set
Actual Time 6:35 AM CST 5:47 PM CST
Civil Twilight 6:10 AM CST 6:11 PM CST
Nautical Twilight 5:42 AM CST 6:40 PM CST
Astronomical Twilight 5:14 AM CST 7:08 PM CST
Moon 11:43 AM CST (2/18) 1:04 AM CST (2/18)
Length of Visible Light 12h 01m
Length of Day
11h 11m
First Quarter, 58% of the Moon is Illuminated
Feb 18
First Quarter
Feb 25
Full
Mar 4
Last Quarter
Mar 11
New
Mar 19
First Quarter

Hourly Weather History & Observations

Time (CST) Temp. Windchill Dew Point Humidity Pressure Visibility Wind Dir Wind Speed Gust Speed Precip Events Conditions
12:53 AM 41.0 °F 39.0 °F 34.0 °F 76% 30.27 in 10.0 mi South 3.5 mph - N/A   Clear
1:53 AM 37.9 °F - 33.1 °F 83% 30.25 in 10.0 mi Calm Calm - N/A   Clear
2:53 AM 36.0 °F - 32.0 °F 86% 30.24 in 10.0 mi Calm Calm - N/A   Clear
3:53 AM 36.0 °F - 32.0 °F 86% 30.23 in 10.0 mi Calm Calm - N/A   Clear
4:53 AM 35.1 °F - 30.9 °F 85% 30.23 in 10.0 mi Calm Calm - N/A   Clear
5:53 AM 35.1 °F - 32.0 °F 89% 30.24 in 10.0 mi Calm Calm - N/A   Clear
6:53 AM 36.0 °F - 33.1 °F 89% 30.24 in 10.0 mi Calm Calm - N/A   Clear
8:53 AM 55.0 °F - 44.1 °F 67% 30.24 in 10.0 mi ESE 8.1 mph - N/A   Clear
10:53 AM 66.0 °F - 44.1 °F 45% 30.20 in - South 15.0 mph 31.1 mph N/A   Unknown
11:53 AM 64.9 °F - 43.0 °F 45% 30.17 in 10.0 mi SSE 20.7 mph 33.4 mph N/A   Overcast
12:53 PM 63.0 °F - 42.1 °F 46% 30.16 in 10.0 mi South 18.4 mph 26.5 mph N/A   Overcast
1:53 PM 62.1 °F - 44.1 °F 52% 30.13 in 6.0 mi SSE 19.6 mph 27.6 mph N/A   Haze
2:53 PM 63.0 °F - 45.0 °F 52% 30.12 in 10.0 mi SSE 18.4 mph 24.2 mph N/A   Overcast
3:53 PM 61.0 °F - 44.1 °F 54% 30.10 in 10.0 mi SSE 18.4 mph 25.3 mph N/A   Overcast
4:53 PM 60.1 °F - 45.0 °F 57% 30.09 in 10.0 mi SSE 16.1 mph 25.3 mph 0.00 in Rain Light Rain
5:53 PM 57.0 °F - 48.9 °F 74% 30.08 in 10.0 mi SSE 13.8 mph - 0.00 in Rain Light Rain
6:53 PM 57.0 °F - 48.9 °F 74% 30.08 in 10.0 mi SSE 15.0 mph - 0.00 in Rain Light Rain
7:53 PM 55.9 °F - 50.0 °F 80% 30.06 in 10.0 mi SE 15.0 mph - N/A   Overcast
8:53 PM 55.9 °F - 51.1 °F 84% 30.04 in 10.0 mi SSE 12.7 mph - 0.00 in Rain Light Rain
9:40 PM 57.2 °F - 51.8 °F 82% 30.03 in 10.0 mi SSE 12.7 mph - N/A   Overcast
9:53 PM 57.9 °F - 52.0 °F 81% 30.03 in 10.0 mi South 10.4 mph - N/A   Overcast
10:53 PM 59.0 °F - 54.0 °F 83% 29.98 in 10.0 mi SSE 13.8 mph - 0.00 in   Overcast
11:53 PM 59.0 °F - 55.9 °F 90% 29.98 in 6.0 mi South 16.1 mph 24.2 mph 0.03 in Rain Rain